Date String (YYYY-MM-DD hh:mm:ss) UTC,Instrument flags,absolute air pressure of the measurement (hPa),sample flow rate (lpm),inlet stack bypass flow (lpm),air temperature of the measurement (°C),ambient temperature measured by the external sensor (°C),aerosol sample conditioner tube jacket temperature (°C),OPC LED temperature (°C),internal box temperature (°C),relative humidity of the measurement (%),span deviation,mass concentration of particles derived from Lorenz-Mie calculation of OPC scattering (μg/m³),mass concentration of particles derived from Lorenz-Mie calculation of OPC scattering (μg/m³),mass concentration of particles derived from Lorenz-Mie calculation of OPC scattering (μg/m³)
DateTimeUTC,F1_M11,P_M11,Q1_M11,Q2_M11,T1_M11,T2_M11,T3_M11,T4_M11,T5_M11,U1_M11,ZSPAN_M11,X2_M11,X0_M11,X1_M11
2023-09-18 14:00:00,SystemResetWarning,0831.4,5.00,000.00,028.4,026.0,000.0,036.9,029.8,16.7,0000.0,0002.71,0005.53,0002.27
2023-09-18 14:01:00,SystemResetWarning,0831.5,5.01,000.00,028.4,026.3,000.0,036.9,029.9,17.1,0000.0,0002.71,0004.23,0002.26
2023-09-18 14:02:00,SystemResetWarning,0831.5,5.00,000.00,028.4,026.5,000.0,036.9,029.9,16.8,0000.0,0002.70,0003.98,0002.26
2023-09-18 14:03:00,SystemResetWarning,0831.5,5.00,000.00,028.4,026.6,000.0,036.9,030.0,16.9,0000.0,0002.73,0003.88,0002.27
2023-09-18 14:04:00,SystemResetWarning,0831.5,5.00,000.00,028.4,026.7,000.0,036.8,030.0,17.0,0000.0,0002.78,0003.99,0002.29
2023-09-18 14:05:00,SystemResetWarning,0831.5,5.00,000.00,028.4,026.9,000.0,036.9,030.0,16.7,0000.0,0002.78,0003.95,0002.28
2023-09-18 14:06:00,SystemResetWarning,0831.5,5.00,000.00,028.5,027.0,000.0,036.8,030.0,16.6,0000.0,0002.77,0003.83,0002.29
2023-09-18 14:07:00,SystemResetWarning,0831.4,5.00,000.00,028.5,027.0,000.0,036.8,030.1,16.5,0000.0,0002.77,0003.76,0002.29
2023-09-18 14:08:00,SystemResetWarning,0831.5,5.00,000.00,028.5,027.1,000.0,036.8,030.1,16.4,0000.0,0002.75,0003.98,0002.29
2023-09-18 14:09:00,SystemResetWarning,0831.5,5.00,000.00,028.5,027.2,000.0,036.8,030.2,16.5,0000.0,0002.71,0004.39,0002.29
2023-09-18 14:10:00,SystemResetWarning,0831.5,4.99,000.00,028.5,027.2,000.0,036.9,030.2,16.5,0000.0,0002.70,0004.41,0002.28
2023-09-18 14:11:00,SystemResetWarning,0831.5,4.99,000.00,028.6,027.3,000.0,036.9,030.2,17.2,0000.0,0002.78,0004.81,0002.30
2023-09-18 14:12:00,SystemResetWarning,0831.5,5.00,000.00,028.6,027.3,000.0,036.9,030.2,17.5,0000.0,0003.02,0006.45,0002.34
2023-09-18 14:13:00,SystemResetWarning,0831.5,5.01,000.00,028.6,027.4,000.0,036.9,030.3,17.2,0000.0,0003.24,0008.80,0002.37
2023-09-18 14:14:00,SystemResetWarning,0831.5,5.01,000.00,028.6,027.4,000.0,036.9,030.3,17.4,0000.0,0003.34,0009.39,0002.40
2023-09-18 14:15:00,SystemResetWarning,0831.5,5.00,000.00,028.7,027.4,000.0,036.9,030.3,16.9,0000.0,0003.35,0009.61,0002.39
2023-09-18 14:16:00,SystemResetWarning,0831.5,4.99,000.00,028.7,027.1,000.0,036.9,030.2,16.8,0000.0,0003.42,0010.36,0002.41
2023-09-18 14:17:00,SystemResetWarning,0831.4,5.00,000.00,028.6,025.6,000.0,036.9,029.7,16.8,0000.0,0003.51,0011.06,0002.42
2023-09-18 14:18:00,SystemResetWarning,0831.4,5.01,000.00,028.4,024.6,000.0,036.8,029.5,17.2,0000.0,0003.56,0011.63,0002.43
2023-09-18 14:19:00,SystemResetWarning,0831.5,5.00,000.00,028.4,024.7,000.0,036.8,029.5,16.8,0000.0,0003.61,0011.63,0002.45
2023-09-18 14:20:00,SystemResetWarning,0831.4,5.00,000.00,028.3,025.0,000.0,036.8,029.5,16.1,0000.0,0003.65,0011.41,0002.45
2023-09-18 14:21:00,SystemResetWarning,0831.5,5.00,000.00,028.3,025.3,000.0,036.7,029.5,16.1,0000.0,0003.64,0011.37,0002.45
2023-09-18 14:22:00,SystemResetWarning,0831.4,4.99,000.00,028.2,025.6,000.0,036.7,029.6,16.3,0000.0,0003.62,0011.24,0002.44
2023-09-18 14:23:00,SystemResetWarning,0831.5,5.00,000.00,028.2,025.9,000.0,036.7,029.6,16.3,0000.0,0003.52,0010.51,0002.43
2023-09-18 14:24:00,SystemResetWarning,0831.5,5.01,000.00,028.2,026.1,000.0,036.7,029.7,16.2,0000.0,0003.37,0008.60,0002.42
2023-09-18 14:25:00,SystemResetWarning,0831.5,5.00,000.00,028.2,026.3,000.0,036.7,029.7,16.4,0000.0,0003.28,0008.00,0002.41
2023-09-18 14:26:00,SystemResetWarning,0831.5,5.01,000.00,028.2,026.5,000.0,036.7,029.8,16.3,0000.0,0003.28,0007.80,0002.42
2023-09-18 14:27:00,SystemResetWarning,0831.5,5.00,000.00,028.3,026.6,000.0,036.7,029.8,16.3,0000.0,0003.23,0006.99,0002.41
2023-09-18 14:28:00,SystemResetWarning,0831.5,5.00,000.00,028.3,026.8,000.0,036.7,029.9,16.0,0000.0,0003.14,0006.07,0002.41
2023-09-18 14:29:00,SystemResetWarning,0831.5,4.99,000.00,028.3,026.9,000.0,036.7,029.9,16.2,0000.0,0003.09,0005.12,0002.39
2023-09-18 14:30:00,SystemResetWarning,0831.5,5.00,000.00,028.3,027.0,000.0,036.7,030.0,16.5,0000.0,0003.05,0004.98,0002.38
2023-09-18 14:31:00,SystemResetWarning,0831.5,5.00,000.00,028.4,027.0,000.0,036.7,030.0,15.9,0000.0,0003.08,0005.03,0002.39
2023-09-18 14:32:00,SystemResetWarning,0831.5,5.00,000.00,028.4,027.1,000.0,036.7,030.0,16.0,0000.0,0003.11,0005.14,0002.40
2023-09-18 14:33:00,SystemResetWarning,0831.5,5.00,000.00,028.4,027.2,000.0,036.7,030.1,16.5,0000.0,0003.12,0005.76,0002.41
2023-09-18 14:34:00,SystemResetWarning,0831.5,5.00,000.00,028.4,027.2,000.0,036.7,030.1,16.6,0000.0,0003.13,0006.01,0002.41
2023-09-18 14:35:00,SystemResetWarning,0831.5,5.00,000.00,028.5,027.3,000.0,036.7,030.1,16.6,0000.0,0003.11,0005.98,0002.41
2023-09-18 14:36:00,SystemResetWarning,0831.5,5.01,000.00,028.5,027.3,000.0,036.8,030.2,16.8,0000.0,0003.11,0006.01,0002.41
2023-09-18 14:37:00,SystemResetWarning,0831.5,5.00,000.00,028.5,027.4,000.0,036.8,030.2,16.6,0000.0,0003.10,0006.05,0002.41
2023-09-18 14:38:00,SystemResetWarning,0831.4,5.00,000.00,028.6,027.3,000.0,036.8,030.2,16.5,0000.0,0003.09,0006.01,0002.41
2023-09-18 14:39:00,SystemResetWarning,0831.4,4.99,000.00,028.5,026.3,000.0,036.8,029.9,16.7,0000.0,0003.07,0006.03,0002.41
2023-09-18 14:40:00,SystemResetWarning,0831.4,5.01,000.00,028.4,024.9,000.0,036.7,029.4,17.1,0000.0,0003.07,0005.98,0002.41
2023-09-18 14:41:00,SystemResetWarning,0831.4,5.01,000.00,028.3,024.7,000.0,036.6,029.5,16.3,0000.0,0003.04,0006.18,0002.42
2023-09-18 14:42:00,SystemResetWarning,0831.4,4.99,000.00,028.2,024.9,000.0,036.6,029.4,16.3,0000.0,0002.97,0006.54,0002.43
2023-09-18 14:43:00,SystemResetWarning,0831.4,5.00,000.00,028.2,025.2,000.0,036.6,029.4,16.4,0000.0,0002.92,0006.49,0002.43
2023-09-18 14:44:00,SystemResetWarning,0831.4,5.02,000.00,028.2,025.6,000.0,036.6,029.5,16.2,0000.0,0002.91,0006.20,0002.42
2023-09-18 14:45:00,SystemResetWarning,0831.4,5.01,000.00,028.2,025.8,000.0,036.6,029.6,16.6,0000.0,0002.89,0005.59,0002.42
2023-09-18 14:46:00,SystemResetWarning,0831.4,4.98,000.00,028.2,026.1,000.0,036.6,029.6,15.9,0000.0,0002.88,0005.54,0002.41
2023-09-18 14:47:00,SystemResetWarning,0831.4,5.01,000.00,028.2,026.3,000.0,036.6,029.7,15.8,0000.0,0002.87,0005.69,0002.42
2023-09-18 14:48:00,SystemResetWarning,0831.4,5.01,000.00,028.2,026.5,000.0,036.6,029.7,16.5,0000.0,0002.84,0006.49,0002.40
2023-09-18 14:49:00,SystemResetWarning,0831.4,5.01,000.00,028.2,026.7,000.0,036.6,029.8,16.0,0000.0,0002.83,0007.19,0002.40
2023-09-18 14:50:00,SystemResetWarning,0831.4,5.00,000.00,028.2,026.8,000.0,036.6,029.8,16.3,0000.0,0002.81,0007.41,0002.39
2023-09-18 14:51:00,SystemResetWarning,0831.4,4.99,000.00,028.3,026.9,000.0,036.6,029.9,16.1,0000.0,0002.80,0007.33,0002.39
2023-09-18 14:52:00,SystemResetWarning,0831.5,5.00,000.00,028.3,027.0,000.0,036.6,029.9,16.5,0000.0,0002.85,0007.36,0002.38
2023-09-18 14:53:00,SystemResetWarning,0831.5,5.00,000.00,028.3,027.1,000.0,036.6,029.9,16.8,0000.0,0002.86,0007.06,0002.37
2023-09-18 14:54:00,SystemResetWarning,0831.5,5.00,000.00,028.3,027.1,000.0,036.7,030.0,16.9,0000.0,0002.87,0007.04,0002.35
2023-09-18 14:55:00,SystemResetWarning,0831.5,5.00,000.00,028.4,027.2,000.0,036.7,030.0,16.5,0000.0,0002.85,0006.99,0002.34
2023-09-18 14:56:00,SystemResetWarning,0831.4,5.00,000.00,028.4,027.3,000.0,036.7,030.1,16.1,0000.0,0002.80,0006.87,0002.32
2023-09-18 14:57:00,SystemResetWarning,0831.4,5.00,000.00,028.4,027.3,000.0,036.7,030.1,16.3,0000.0,0002.78,0006.81,0002.31
2023-09-18 14:58:00,SystemResetWarning,0831.4,4.98,000.00,028.4,026.5,000.0,036.7,029.9,16.1,0000.0,0002.78,0007.62,0002.29
2023-09-18 14:59:00,SystemResetWarning,0831.4,5.01,000.00,028.3,024.9,000.0,036.6,029.4,16.3,0000.0,0002.75,0007.05,0002.29
